Home   Weather   Freehold   Past weeks

Flag for USA Past Weather in Freehold, New Jersey, USA — Yesterday and Last 2 Weeks

Now
42 °F

Fog.


Feels Like: 40 °F
Forecast: 40 / 55 °F
Wind: 3 mph from South

Location: Belmar-Farmdale

Current Time: Jan 20, 2017 at 11:50:03 pm

Latest Report: Jan 20, 2017 at 10:56 pm


Visibility: 5 mi

Pressure: 29.95 "Hg

Humidity: 92%

Dew Point: 40 °F

Location of FreeholdLocation

Past Weather in Freehold — Graph

°F

Freehold Temperature Yesterday

Maximum temperature yesterday: 48 °F (at 1:04 pm)
Minimum temperature yesterday: 33 °F (at 11:56 pm)
Average temperature yesterday: 41 °F

High & Low Weather Summary for the Past Weeks

 TemperatureHumidityPressure
High69 °F (Jan 12, 2:56 pm)100% (Jan 11, 10:56 pm)30.81 "Hg (Jan 11, 10:56 pm)
Low5 °F (Jan 9, 4:56 am)37% (Jan 13, 2:56 pm)29.88 "Hg (Jan 18, 3:21 am)
Average35 °F77%30.25 "Hg
* Reported Jan 5 9:56 pm — Jan 20 9:56 pm, Freehold, Weather by CustomWeather, © 2017

Note: Actual official high and low records may vary slightly from our data, if they occured in-between our weather recording intervals... More about our weather records

Advertising

Freehold Weather History for the Previous 24 Hours

Scroll right to see more
 ConditionsComfort  
Time TempWeatherWind HumidityBarometerVisibility
9:56 pm
Fri, Jan 20
41 °FFog.No wind96%29.94 "Hg6 mi
8:56 pm41 °FOvercast.No wind96%29.94 "Hg7 mi
7:56 pm41 °FFog.3 mph100%29.95 "Hg6 mi
6:56 pm41 °FMostly cloudy.5 mph96%29.95 "Hg7 mi
5:56 pm41 °FLow clouds.3 mph96%29.95 "Hg7 mi
5:33 pm41 °FLight rain. Mostly cloudy.5 mph93%29.93 "Hg7 mi
5:21 pm41 °FLight rain. Fog.3 mph93%29.94 "Hg5 mi
4:56 pm41 °FLight rain. Fog.3 mph96%29.96 "Hg6 mi
3:56 pm42 °FLight rain. Mostly cloudy.No wind92%29.96 "Hg7 mi
2:56 pm42 °FLight rain. Mostly cloudy.5 mph89%29.96 "Hg10 mi
1:56 pm43 °FLight rain. Overcast.3 mph82%29.96 "Hg10 mi
1:38 pm43 °FLight rain. Broken clouds.6 mph81%29.94 "Hg10 mi
12:56 pm44 °FPartly sunny.8 mph76%29.98 "Hg10 mi
11:56 am44 °FPartly sunny.6 mph73%30.01 "Hg10 mi
10:56 am44 °FOvercast.7 mph76%30.03 "Hg10 mi
9:56 am42 °FOvercast.3 mph79%30.06 "Hg10 mi
8:56 am41 °FOvercast.5 mph80%30.03 "Hg10 mi
7:56 am39 °FOvercast.5 mph86%30.02 "Hg10 mi
6:56 am39 °FOvercast.3 mph86%30.02 "Hg10 mi
5:56 am36 °FOvercast.5 mph92%30.02 "Hg10 mi
4:56 am34 °FOvercast.No wind92%30.04 "Hg10 mi
3:56 am33 °FOvercast.No wind92%30.04 "Hg10 mi
2:56 am33 °FOvercast.3 mph88%30.04 "Hg10 mi
2:32 am34 °FOvercast.5 mph87%30.03 "Hg10 mi
1:56 am34 °FOvercast.No wind92%30.05 "Hg10 mi
12:56 am32 °FPassing clouds.3 mph92%30.05 "Hg10 mi
11:56 pm
Thu, Jan 19
33 °FClear.3 mph88%30.05 "Hg10 mi
Weather by CustomWeather, © 2017

See weather overviewHow to use our weather pages